map of BUS home
Great Circle Mapper logo
BUS - Airport
Location
City:  Batumi, Georgia
ICAO / IATA:UGSB / BUS

Details
Type:Airport (Aerodrome, Airfield)
Latitude:4136'37"N (41.610278)
Longitude:4135'59"E (41.599694)
Datum:WGS 1984
Elevation:105 ft (32 m)
Runways:1
Longest:7325 × 150 ft (2233 × 45.5 m), paved

Time
Time Zone:UTC+3 (DST+4)

Weather
METAR:UGSB 181330Z 15004KT 9999 VCTS BKN023CB 23/20 Q1013 R13/19//60 TEMPO TSRA
TAF:UGSB 181100Z 1812/1912 27011KT 9999 SCT030CB BKN060 TX26/1812Z TN19/1902Z
TEMPO 1812/1818 TSRA BKN020CB
BECMG 1817/1819 14009KT
TEMPO 1822/1904 -TSRA BKN025CB
BECMG 1907/1908 28010KT

Related Locations
Nearby:
Farthest:GMR: 11137 mi / 17924 km
Mangareva [Totegegie], Gambier Islands, PF

Find:

   beyond  
but within

Other Information
Maps:
NOTAMs:
Links:
Sources:

  
flag of Georgia   

Sectional Chart

Flight Planning
at skyvector.com

Satellite Image

Google Maps Satellite View

 

Copyright © 2004-2014 Karl L. Swartz. All rights reserved.
The Great Circle Mapper name and logo are trademarks of the Great Circle Mapper.
All other trademarks mentioned herein belong to their respective owners.
Please see credits for attibutions and further copyright information.

  Follow gcmap on Facebook Follow gcmap on Twitter

hCard Microformat

Geo Microformat